Location: Binningen
(47.7924°N, 8.7261°E)
Time: 19:15:00
(UTC+00:00)

Okean 3 - Pass Details

Date: 17 May 2021
Orbit: 575 x 601 km, 82.5° (Epoch: 21 June)

Event Time Altitude Azimuth Distance (km) Brightness Sun altitude
Exits shadow 22:59:12 65° 238° (WSW) 650 3.4 -22.5°
Maximum altitude 22:59:36 71° 280° (W) 625 3.5 -22.5°
Drops below altitude 10° 23:03:50 10° 5° (N) 1,917 7.2 -22.5°
Sets 23:06:03 0° 8° (N) 2,818 8.3 -22.6°
